Cosmos 1140 Rocket - Orbit

View from above orbital plane
View from above orbital plane
View from above satellite
View from above satellite

Ground track
Ground track

The orbit data is extracted from the following two-line orbital elements,

1 11574U 79089B   13141.85878965  .00000207  00000-0  74093-4 0  4594
2 11574 074.0715 083.2742 0016044 002.6988 054.3009 14.40001914763010
Epoch (UTC): 21 May 2013 20:36:39
Eccentricity: 0.0016044
inclination: 74.0715°
perigee height: 747 km
apogee height: 770 km
right ascension of ascending node: 83.2742°
argument of perigee: 2.6988°
revolutions per day: 14.40001914
mean anomaly at epoch: 54.3009°
orbit number at epoch: 76301

The dashed part of the orbit path shows where the satellite is in the earth's shadow,  

Developed and maintained by Chris Peat, Heavens-Above GmbH. Please read the updated FAQ before sending e-mail. Imprint. DLR